カタログに戻る

COSMOS 2499 DEB

LostPO
NORAD 55731·DEBRIS·🇷🇺 Russia

打ち上げ May 23, 2014 から Plesetsk Cosmodrome

Loading…

次のパス (今後24時間)

TLE

古いSource: Space-Track

元期: Feb 8, 2025, 15:49 UTC

1 55731U 14028AT  25039.65970172  .00037548  00000-0  60509-1 0  9990
2 55731  82.4318 192.3974 0249676 252.6266 104.7425 13.36689282 99084

AllMySatでCOSMOS 2499 DEBをリアルタイム追跡

Download on the App Store